| time (UTC) | temp C | wind direction | speed KPH | gust KPH | rain 1hr cm | rain 24hr cm | rain mn cm | humidity % | barometer mb |
| 20260506030054 | 8 | 0 | 0.0 | 6.4 | 0.00 | 0.00 | 0.00 | 47 | 1010.0 |
| 20260506024600 | 8 | 288 | 0.0 | 1.6 | 0.00 | 0.00 | 0.00 | 48 | 1009.8 |
| 20260506023055 | 8 | 0 | 0.0 | 0.0 | 0.00 | 0.00 | 0.00 | 51 | 1009.7 |
| 20260506021551 | 8 | 0 | 0.0 | 0.0 | 0.00 | 0.00 | 0.00 | 49 | 1009.4 |
| 20260506020107 | 8 | 0 | 0.0 | 0.0 | 0.00 | 0.00 | 0.00 | 45 | 1009.2 |
| 20260506014608 | 9 | 0 | 0.0 | 0.0 | 0.00 | 0.00 | 0.00 | 43 | 1009.0 |
| 20260506013055 | 10 | 0 | 0.0 | 0.0 | 0.00 | 0.00 | 0.00 | 40 | 1008.7 |
| 20260506011617 | 11 | 0 | 0.0 | 1.6 | 0.00 | 0.00 | 0.00 | 38 | 1008.4 |
| 20260506010054 | 11 | 243 | 1.6 | 9.7 | 0.00 | 0.00 | 0.00 | 36 | 1008.3 |
| 20260506004603 | 11 | 283 | 0.0 | 8.0 | 0.00 | 0.00 | 0.00 | 36 | 1008.0 |
| 20260506003052 | 12 | 308 | 0.0 | 9.7 | 0.00 | 0.00 | 0.00 | 34 | 1007.8 |
| 20260506001556 | 12 | 0 | 1.6 | 8.0 | 0.00 | 0.00 | 0.00 | 33 | 1007.6 |
| 20260506000117 | 12 | 255 | 1.6 | 6.4 | 0.00 | 0.00 | 0.00 | 33 | 1007.5 |
| 20260505234554 | 12 | 292 | 1.6 | 8.0 | 0.00 | 0.00 | 0.00 | 32 | 1007.4 |
| 20260505233057 | 12 | 252 | 3.2 | 16.1 | 0.00 | 0.00 | 0.00 | 32 | 1007.3 |
| 20260505231559 | 13 | 0 | 1.6 | 14.5 | 0.00 | 0.00 | 0.00 | 30 | 1007.3 |
| 20260505230106 | 13 | 292 | 1.6 | 11.3 | 0.00 | 0.00 | 0.00 | 32 | 1007.3 |
| 20260505224557 | 13 | 0 | 4.8 | 14.5 | 0.00 | 0.00 | 0.00 | 29 | 1007.4 |
| 20260505223054 | 13 | 284 | 4.8 | 11.3 | 0.00 | 0.00 | 0.00 | 29 | 1007.4 |
| 20260505221559 | 13 | 281 | 8.0 | 14.5 | 0.00 | 0.00 | 0.00 | 28 | 1007.2 |
| 20260505220054 | 13 | 285 | 8.0 | 20.9 | 0.00 | 0.00 | 0.00 | 29 | 1007.1 |
| 20260505214553 | 13 | 288 | 12.9 | 29.0 | 0.00 | 0.00 | 0.00 | 28 | 1007.2 |
| 20260505213056 | 13 | 302 | 8.0 | 19.3 | 0.00 | 0.00 | 0.00 | 30 | 1007.3 |
| 20260505211555 | 13 | 278 | 3.2 | 17.7 | 0.00 | 0.00 | 0.00 | 29 | 1007.2 |
| 20260505210052 | 13 | 292 | 3.2 | 17.7 | 0.00 | 0.00 | 0.00 | 29 | 1007.2 |
| 20260505204600 | 13 | 290 | 3.2 | 19.3 | 0.00 | 0.00 | 0.00 | 30 | 1007.3 |
| 20260505203100 | 13 | 0 | 6.4 | 17.7 | 0.00 | 0.00 | 0.00 | 30 | 1007.4 |
| 20260505201553 | 13 | 285 | 8.0 | 25.7 | 0.00 | 0.00 | 0.00 | 32 | 1007.7 |
| 20260505200054 | 13 | 286 | 8.0 | 24.1 | 0.00 | 0.00 | 0.00 | 32 | 1007.7 |
| 20260505194609 | 12 | 291 | 11.3 | 30.6 | 0.00 | 0.00 | 0.00 | 32 | 1008.0 |
| 20260505193052 | 12 | 266 | 11.3 | 20.9 | 0.00 | 0.00 | 0.00 | 33 | 1008.1 |
| 20260505191606 | 12 | 207 | 6.4 | 24.1 | 0.00 | 0.00 | 0.00 | 33 | 1008.3 |
| 20260505190054 | 12 | 285 | 11.3 | 22.5 | 0.00 | 0.00 | 0.00 | 33 | 1008.3 |
| 20260505184553 | 12 | 295 | 9.7 | 22.5 | 0.00 | 0.00 | 0.00 | 33 | 1008.2 |
| 20260505183055 | 12 | 261 | 12.9 | 27.4 | 0.00 | 0.00 | 0.00 | 33 | 1007.9 |
| 20260505181552 | 12 | 284 | 11.3 | 19.3 | 0.00 | 0.00 | 0.00 | 33 | 1007.8 |
| 20260505180057 | 12 | 291 | 16.1 | 24.1 | 0.00 | 0.00 | 0.00 | 31 | 1007.6 |
| 20260505174554 | 12 | 284 | 12.9 | 22.5 | 0.00 | 0.00 | 0.00 | 30 | 1007.6 |
| 20260505173113 | 12 | 302 | 9.7 | 33.8 | 0.00 | 0.00 | 0.00 | 29 | 1007.7 |
| 20260505171618 | 12 | 297 | 8.0 | 24.1 | 0.00 | 0.00 | 0.00 | 31 | 1007.7 |
| 20260505170055 | 11 | 255 | 9.7 | 20.9 | 0.00 | 0.00 | 0.00 | 34 | 1007.7 |
| 20260505164558 | 11 | 269 | 9.7 | 22.5 | 0.00 | 0.00 | 0.00 | 32 | 1007.4 |
| 20260505163052 | 11 | 281 | 8.0 | 24.1 | 0.00 | 0.00 | 0.00 | 33 | 1007.4 |
| 20260505161555 | 11 | 293 | 6.4 | 20.9 | 0.00 | 0.00 | 0.00 | 36 | 1007.8 |
| 20260505153054 | 11 | 288 | 4.8 | 19.3 | 0.00 | 0.00 | 0.00 | 37 | 1007.4 |
| 20260505151555 | 11 | 278 | 6.4 | 25.7 | 0.00 | 0.00 | 0.00 | 38 | 1007.5 |
| 20260505150110 | 11 | 231 | 8.0 | 22.5 | 0.00 | 0.00 | 0.00 | 39 | 1007.4 |
| 20260505130111 | 9 | 276 | 4.8 | 11.3 | 0.00 | 0.00 | 0.00 | 43 | 1007.5 |
| 20260505124608 | 8 | 295 | 3.2 | 8.0 | 0.00 | 0.00 | 0.00 | 45 | 1007.4 |
| 20260505123105 | 8 | 259 | 3.2 | 11.3 | 0.00 | 0.00 | 0.00 | 46 | 1008.0 |
| 20260505121623 | 7 | 0 | 0.0 | 4.8 | 0.00 | 0.00 | 0.00 | 53 | 1007.2 |
| 20260505120054 | 7 | 261 | 1.6 | 8.0 | 0.00 | 0.00 | 0.00 | 54 | 1008.1 |
| 20260505114555 | 6 | 256 | 0.0 | 3.2 | 0.00 | 0.00 | 0.00 | 57 | 1006.9 |
| 20260505113105 | 6 | 0 | 0.0 | 0.0 | 0.00 | 0.00 | 0.00 | 59 | 1006.1 |
| 20260505111556 | 6 | 0 | 0.0 | 3.2 | 0.00 | 0.00 | 0.00 | 56 | 1006.0 |
| 20260505101559 | 7 | 339 | 0.0 | 3.2 | 0.00 | 0.00 | 0.00 | 53 | 1005.7 |
| 20260505100136 | 7 | 302 | 0.0 | 8.0 | 0.00 | 0.00 | 0.00 | 52 | 1005.9 |
| 20260505094555 | 7 | 0 | 1.6 | 6.4 | 0.00 | 0.00 | 0.00 | 51 | 1005.4 |
| 20260505093054 | 7 | 0 | 0.0 | 4.8 | 0.00 | 0.00 | 0.00 | 51 | 1005.7 |
| 20260505091616 | 7 | 0 | 0.0 | 3.2 | 0.00 | 0.00 | 0.00 | 52 | 1005.9 |
| 20260505084552 | 8 | 0 | 0.0 | 3.2 | 0.00 | 0.00 | 0.00 | 52 | 1004.8 |
| 20260505083053 | 8 | 235 | 0.0 | 4.8 | 0.00 | 0.00 | 0.00 | 51 | 1004.5 |
| 20260505081551 | 8 | 284 | 1.6 | 8.0 | 0.00 | 0.00 | 0.00 | 48 | 1004.1 |
| 20260505080056 | 9 | 77 | 4.8 | 19.3 | 0.00 | 0.00 | 0.00 | 48 | 1003.9 |
| 20260505074555 | 9 | 0 | 0.0 | 4.8 | 0.00 | 0.00 | 0.00 | 52 | 1003.5 |
| 20260505073100 | 10 | 301 | 1.6 | 11.3 | 0.00 | 0.00 | 0.00 | 50 | 1003.1 |
| 20260505071553 | 10 | 108 | 1.6 | 6.4 | 0.00 | 0.00 | 0.00 | 49 | 1002.9 |
| 20260505070052 | 10 | 290 | 0.0 | 11.3 | 0.00 | 0.00 | 0.00 | 47 | 1002.8 |
| 20260505064602 | 11 | 259 | 1.6 | 8.0 | 0.00 | 0.00 | 0.00 | 48 | 1002.7 |
| 20260505063053 | 11 | 297 | 1.6 | 8.0 | 0.00 | 0.00 | 0.00 | 48 | 1002.1 |
| 20260505061552 | 12 | 274 | 3.2 | 12.9 | 0.00 | 0.00 | 0.00 | 46 | 1002.0 |
| 20260505060055 | 12 | 215 | 1.6 | 8.0 | 0.00 | 0.00 | 0.00 | 45 | 1001.9 |
| 20260505054618 | 12 | 338 | 1.6 | 6.4 | 0.00 | 0.00 | 0.00 | 43 | 1001.9 |
| 20260505053056 | 13 | 281 | 4.8 | 14.5 | 0.00 | 0.00 | 0.00 | 42 | 1001.6 |
| 20260505051552 | 13 | 273 | 4.8 | 11.3 | 0.00 | 0.00 | 0.00 | 40 | 1001.3 |
| 20260505041605 | 15 | 293 | 6.4 | 14.5 | 0.00 | 0.00 | 0.00 | 35 | 1000.2 |
| 20260505040058 | 16 | 278 | 4.8 | 9.7 | 0.00 | 0.00 | 0.00 | 38 | 1000.0 |
| 20260505034554 | 16 | 273 | 3.2 | 9.7 | 0.00 | 0.00 | 0.00 | 39 | 999.9 |
| 20260505033056 | 16 | 287 | 1.6 | 8.0 | 0.00 | 0.00 | 0.00 | 38 | 1000.1 |
| 20260505031554 | 16 | 268 | 3.2 | 6.4 | 0.00 | 0.00 | 0.00 | 37 | 1000.0 |